Weather History for Torrington, WY

Change the Weather History Date:

Sunday, December 30, 2012

  Actual Average Record
Temperature  
Mean Temperature 15 °F 27 °F  
Max Temperature 31 °F 40 °F 60 °F (2011)
Min Temperature -1 °F 14 °F -1 °F (2012)
Degree Days  
Heating Degree Days 50 38  
Month to date heating degree days 1088 1133  
Since 1 July heating degree days 2431 2716  
Cooling Degree Days 0 0  
Month to date cooling degree days 0 0  
Year to date cooling degree days 1021 678  
Moisture  
Dew Point 7 °F    
Average Humidity 69    
Maximum Humidity 92    
Minimum Humidity 46    
Precipitation  
Precipitation 0.00 in 0.01 in 0.13 in (2010)
Month to date precipitation 0.07 0.36  
Year to date precipitation 7.07 14.20  
Sea Level Pressure  
Sea Level Pressure 30.14 in    
Wind  
Wind Speed 5 mph (NW)    
Max Wind Speed 7 mph    
Max Gust Speed 8 mph    
Visibility 10 miles    
Events      
T = Trace of Precipitation, MM = Missing Value Source: NWS Daily Summary

Daily Weather History Graph

Daily Weather History Graph

Search for Another Location

Airport:

Trip Planner

Search our weather history database for the weather conditions in past years. The results will help you decide how hot, cold, wet, or windy it might be!

Date:

Astronomy

Dec. 30, 2012 Rise Set
Actual Time 7:24 AM MST 4:34 PM MST
Civil Twilight 6:53 AM MST 5:06 PM MST
Nautical Twilight 6:17 AM MST 5:41 PM MST
Astronomical Twilight 5:43 AM MST 6:15 PM MST
Moon 7:10 PM MST 8:32 AM MST
Length of Visible Light 10h 12m
Length of Day
9h 09m
Waning Gibbous, 95% of the Moon is Illuminated
Dec 30
Waning Gibbous
Jan 4
Last Quarter
Jan 11
New
Jan 18
First Quarter
Jan 26
Full

Hourly Weather History & Observations

Time (MST) Temp. Windchill Dew Point Humidity Pressure Visibility Wind Dir Wind Speed Gust Speed Precip Events Conditions
12:53 AM 7.0 °F - 3.9 °F 87% 30.06 in 10.0 mi Calm Calm - N/A   Clear
1:53 AM 7.0 °F 0.1 °F 3.9 °F 87% 30.04 in 10.0 mi NW 3.5 mph - N/A   Clear
2:53 AM 3.0 °F -9.3 °F -0.0 °F 87% 30.06 in 10.0 mi WNW 6.9 mph - N/A   Clear
3:53 AM 1.9 °F - -2.0 °F 83% 30.07 in 10.0 mi Calm Calm - N/A   Clear
4:53 AM 1.9 °F -10.6 °F -2.0 °F 83% 30.08 in 10.0 mi NNW 6.9 mph - N/A   Clear
5:53 AM 7.0 °F -4.5 °F 1.0 °F 77% 30.09 in 10.0 mi NNW 6.9 mph - N/A   Clear
6:53 AM 9.0 °F -0.9 °F 1.9 °F 73% 30.11 in 10.0 mi West 5.8 mph - N/A   Clear
7:53 AM 5.0 °F -9.1 °F -0.9 °F 76% 30.12 in 10.0 mi NNW 9.2 mph - N/A   Clear
8:53 AM 5.0 °F -4.1 °F 1.0 °F 84% 30.15 in 10.0 mi SSE 4.6 mph - N/A   Clear
9:53 AM 16.0 °F - 8.1 °F 71% 30.14 in 10.0 mi Calm Calm - N/A   Clear
10:53 AM 27.0 °F 20.5 °F 9.0 °F 47% 30.11 in 10.0 mi NNW 5.8 mph - N/A   Clear
11:53 AM 30.0 °F 23.2 °F 12.0 °F 47% 30.10 in 10.0 mi NNW 6.9 mph - N/A   Clear
12:53 PM 30.0 °F 21.7 °F 12.0 °F 47% 30.11 in 10.0 mi NW 9.2 mph - N/A   Clear
1:53 PM 30.9 °F 24.3 °F 12.0 °F 46% 30.12 in 10.0 mi NW 6.9 mph - N/A   Clear
2:53 PM 28.9 °F 23.9 °F 14.0 °F 54% 30.15 in 10.0 mi NNW 4.6 mph - N/A   Clear
3:53 PM 26.1 °F 17.6 °F 15.1 °F 63% 30.16 in 10.0 mi NNW 8.1 mph - N/A   Clear
4:53 PM 23.0 °F 13.1 °F 12.0 °F 63% 30.18 in 10.0 mi North 9.2 mph - N/A   Clear
5:53 PM 21.0 °F 13.4 °F 10.0 °F 63% 30.19 in 10.0 mi NW 5.8 mph - N/A   Clear
6:53 PM 16.0 °F 7.4 °F 9.0 °F 74% 30.20 in 10.0 mi NNW 5.8 mph - N/A   Mostly Cloudy
7:53 PM 15.1 °F - 9.0 °F 77% 30.23 in 10.0 mi Calm Calm - N/A   Mostly Cloudy
8:53 PM 12.9 °F 5.2 °F 8.1 °F 81% 30.23 in 10.0 mi NNW 4.6 mph - N/A   Clear
9:53 PM 12.0 °F 2.7 °F 8.1 °F 84% 30.21 in 10.0 mi WNW 5.8 mph - N/A   Overcast
10:53 PM 10.9 °F 1.4 °F 8.1 °F 88% 30.21 in 10.0 mi ESE 5.8 mph - N/A   Overcast
11:53 PM 10.9 °F - 7.0 °F 84% 30.20 in 10.0 mi Calm Calm - N/A   Overcast